Weather Roundup
Issued by NWS Chicago, IL

Home | Current Version | Previous Version | Graphics & Text | Print | Product List | Glossary On
Versions: 1 2 3 4 5 6 7 8 9 10 11 12 13 14 15 16 17 18 19 20 21 22 23 24 25 26 27 28 29 30 31 32 33 34 35 36 37 38 39 40 41 42 43 44 45 46 47 48 49 50
309
NZUS59 KLOT 091308
HRRLOT

CHICAGO AREA WEATHER ROUNDUP
NATIONAL WEATHER SERVICE CHICAGO/ROMEOVILLE IL
700 AM CST TUE FEB 09 2016

NOTE: "FAIR" INDICATES FEW OR NO CLOUDS BELOW 12,000 FEET WITH NO
SIGNIFICANT WEATHER AND/OR OBSTRUCTIONS TO VISIBILITY.

* THESE STATIONS ARE NOT UNDER NWS QUALITY CONTROL. THEY ALSO MAY NOT
  REPORT WEATHER SUCH AS PRECIPITATION OR FOG.

ILZ005-006-012>014-019>023-091400-
NORTHEAST ILLINOIS

CITY           SKY/WX    TMP DP  RH WIND       PRES   REMARKS
OHARE          LGT SNOW  16  11  80 NW14      29.78R WCI   2
MIDWAY         FLURRIES  18  10  71 NW15      29.79R WCI   4
AURORA         LGT SNOW  16  11  80 N15       29.82R WCI   1
LANSING*       FLURRIES  18  13  80 NW12G18   29.78R WCI   6
WAUKEGAN       FLURRIES  14   9  80 NW12G17   29.78R WCI   0
DUPAGE AIRPORT LGT SNOW  15   8  73 NW13      29.79R WCI   1
WHEELING       FLURRIES  15  10  80 N12G22    29.80R WCI   2
KANKAKEE*      FLURRIES  20  15  81 NW10      29.80R WCI   8
MORRIS*        LGT SNOW  17  13  82 NW8       29.79R WCI   7
LEWIS AIRPORT* FLURRIES  17  12  82 NW9       29.80R WCI   5
$$

WIZ051-052-058>065-066-070>072-091400-
SOUTHEAST WISCONSIN

CITY           SKY/WX    TMP DP  RH WIND       PRES   REMARKS
MILWAUKEE      MOCLDY    13   6  74 NW16      29.79R WCI  -3
KENOSHA*       FLURRIES  14   8  77 NW12      29.78R WCI   0
RACINE*        CLOUDY    14   6  70 NW14      29.80R WCI  -1
BURLINGTON     LGT SNOW  11   6  80 NW14G20   29.80R WCI  -5
WAUKESHA       PTCLDY    10   5  79 NW14      29.79R WCI  -5
$$

INZ001>003-010>013-019-020-091400-
NORTHWEST INDIANA

CITY           SKY/WX    TMP DP  RH WIND       PRES   REMARKS
GARY*          FLURRIES  21  14  73 W15       29.78R WCI   8
MICHIGAN CITY* NOT AVBL
RENSSELAER*    NOT AVBL
VALPARAISO     LGT SNOW  20  17  88 W12       29.74R WCI   8
$$

LMZ740>746-091400-
SOUTHERN LAKE MICHIGAN

STATION/POSITION TIME  SKY/WX   TEMP WIND        PRES    VSBY
                                AIR  DIR/SP/G
                 (UTC)          (F)  (DEG/KT/KT) (MB)    (MI)
HARRISON CRIB    1200            19  310/ 18/ 20   N/A
BURNHAM HARBOR   1300            18  300/ 11/ 16   N/A
CALUMET HARBOR   1200            18  300/  9/ 17 1007.3R
BURNS HARBOR     1220            23  300/ 18/ 23 1007.5R
MICHIGAN CITY    1200            25  280/ 23/ 26   N/A
$$

ABBREVIATIONS USED IN REMARKS
   TC - TEMPERATURE IN CELSIUS
  WCI - WIND CHILL INDEX
   HX - HEAT INDEX
  VSB - VISIBILITY
$$




USA.gov is the U.S. government's official web portal to all federal, state and local government web resources and services.